This is the latest recevied weather packets stored in our database for station/object KI7JYE. If no packets are shown the sender has not sent any weather packets the latest 10 day(s).
| Time | Temp. | Humidity | Pressure | Rain* | Wind** | Luminosity | Snow |
|---|---|---|---|---|---|---|---|
| 1777911026 | 13.33° C | 85% | 1012.4 hPa | 0 mm | - | 99 W/m² | - |
| 1777910723 | 13.33° C | 86% | 1012.4 hPa | 0 mm | - | 96 W/m² | - |
| 1777910420 | 13.33° C | 86% | 1012.5 hPa | 0 mm | - | 88 W/m² | - |
| 1777910116 | 13.33° C | 86% | 1012.5 hPa | 0 mm | - | 83 W/m² | - |
| 1777909815 | 12.78° C | 87% | 1012.5 hPa | 0 mm | - | 81 W/m² | - |
| 1777909510 | 13.33° C | 86% | 1012.3 hPa | 0 mm | - | 75 W/m² | - |
| 1777909208 | 12.78° C | 87% | 1012.5 hPa | 0 mm | - | 75 W/m² | - |
| 1777908906 | 12.78° C | 87% | 1012.3 hPa | 0 mm | - | 75 W/m² | - |
| 1777908604 | 12.78° C | 87% | 1012.4 hPa | 0 mm | - | 70 W/m² | - |
| 1777908300 | 12.78° C | 88% | 1012.5 hPa | 0 mm | - | 65 W/m² | - |
| 1777907996 | 12.78° C | 88% | 1012.3 hPa | 0 mm | - | 61 W/m² | - |
| 1777907692 | 12.78° C | 88% | 1012.4 hPa | 0 mm | - | 61 W/m² | - |
| 1777907387 | 12.78° C | 89% | 1012.3 hPa | 0 mm | - | 52 W/m² | - |
| 1777907084 | 12.78° C | 90% | 1012.1 hPa | 0 mm | - | 58 W/m² | - |
| 1777906781 | 12.22° C | 90% | 1012.3 hPa | 0 mm | - | 50 W/m² | - |
| 1777906479 | 12.22° C | 91% | 1012.2 hPa | 0 mm | - | 49 W/m² | - |
| 1777906175 | 12.22° C | 90% | 1012.4 hPa | 0 mm | - | 49 W/m² | - |
| 1777905871 | 12.22° C | 91% | 1012.1 hPa | 0 mm | - | 48 W/m² | - |
| 1777905568 | 12.22° C | 91% | 1011.9 hPa | 0 mm | - | 43 W/m² | - |
| 1777905265 | 12.22° C | 91% | 1012.1 hPa | 0 mm | - | 44 W/m² | - |
| 1777904962 | 12.22° C | 91% | 1012 hPa | 0 mm | - | 41 W/m² | - |
| 1777904660 | 12.22° C | 92% | 1012.3 hPa | 0 mm | - | 40 W/m² | - |
| 1777904356 | 11.67° C | 92% | 1012 hPa | 0 mm | - | 37 W/m² | - |
| 1777904053 | 11.67° C | 92% | 1011.8 hPa | 0 mm | - | 35 W/m² | - |
| 1777903750 | 11.67° C | 92% | 1011.6 hPa | 0 mm | - | 33 W/m² | - |
* Rain latest hour (hover to see other rain measurements)
** Current wind speed in m/s (hover to see current wind gust speed)